TimeEST,TemperatureF,Dew PointF,Humidity,Sea Level PressureIn,VisibilityMPH,Wind Direction,Wind SpeedMPH,Gust SpeedMPH,PrecipitationIn,Events,Conditions,WindDirDegrees,DateUTC
12:54 AM,10.9,-0.9,59,29.93,10.0,Calm,Calm,-,N/A,,Clear,0,2013-02-05 05:54:00
1:54 AM,9.0,-0.9,64,29.94,10.0,Calm,Calm,-,N/A,,Partly Cloudy,0,2013-02-05 06:54:00
2:54 AM,7.0,-0.9,70,29.94,10.0,Calm,Calm,-,N/A,,Partly Cloudy,0,2013-02-05 07:54:00
3:54 AM,6.1,-0.9,73,29.95,10.0,Calm,Calm,-,N/A,,Clear,0,2013-02-05 08:54:00
4:54 AM,5.0,-0.9,76,29.96,10.0,Calm,Calm,-,N/A,,Clear,0,2013-02-05 09:54:00
5:54 AM,3.9,-2.0,76,29.97,10.0,Calm,Calm,-,N/A,,Clear,0,2013-02-05 10:54:00
6:54 AM,3.0,-2.9,76,30.00,7.0,Calm,Calm,-,N/A,,Clear,0,2013-02-05 11:54:00
7:54 AM,3.9,-0.9,80,30.03,10.0,Calm,Calm,-,N/A,,Clear,0,2013-02-05 12:54:00
8:54 AM,9.0,3.0,77,30.04,10.0,Calm,Calm,-,N/A,,Clear,0,2013-02-05 13:54:00
9:54 AM,16.0,3.0,57,30.03,10.0,Calm,Calm,-,N/A,,Clear,0,2013-02-05 14:54:00
10:54 AM,19.9,3.0,48,30.02,10.0,Calm,Calm,-,N/A,,Clear,0,2013-02-05 15:54:00
11:54 AM,21.9,3.0,44,29.99,10.0,Calm,Calm,-,N/A,,Clear,0,2013-02-05 16:54:00
12:54 PM,25.0,3.0,39,29.96,10.0,SE,5.8,-,N/A,,Clear,130,2013-02-05 17:54:00
1:54 PM,26.1,1.9,35,29.94,10.0,NW,4.6,-,N/A,,Clear,310,2013-02-05 18:54:00
2:54 PM,27.0,1.9,34,29.93,10.0,Calm,Calm,-,N/A,,Clear,0,2013-02-05 19:54:00
3:54 PM,26.1,3.9,39,29.93,10.0,SE,5.8,-,N/A,,Clear,140,2013-02-05 20:54:00
4:54 PM,25.0,5.0,43,29.93,10.0,Calm,Calm,-,N/A,,Clear,0,2013-02-05 21:54:00
5:54 PM,24.1,5.0,44,29.93,10.0,Calm,Calm,-,N/A,,Partly Cloudy,0,2013-02-05 22:54:00
6:54 PM,21.9,8.1,55,29.93,9.0,NNW,3.5,-,N/A,,Overcast,340,2013-02-05 23:54:00
7:54 PM,21.0,8.1,57,29.94,10.0,Calm,Calm,-,N/A,,Overcast,0,2013-02-06 00:54:00
8:54 PM,21.0,9.0,60,29.94,10.0,Calm,Calm,-,N/A,,Overcast,0,2013-02-06 01:54:00
9:54 PM,19.9,10.0,65,29.93,10.0,Calm,Calm,-,N/A,,Partly Cloudy,0,2013-02-06 02:54:00
10:54 PM,19.9,10.0,65,29.93,10.0,Calm,Calm,-,N/A,,Overcast,0,2013-02-06 03:54:00
11:54 PM,19.9,10.0,65,29.93,10.0,Calm,Calm,-,N/A,,Overcast,0,2013-02-06 04:54:00